This is the latest recevied weather packets stored in our database for station/object K6CEG. If no packets are shown the sender has not sent any weather packets the latest 10 day(s).
| Time | Temp. | Humidity | Pressure | Rain* | Wind** | Luminosity | Snow |
|---|---|---|---|---|---|---|---|
| 1788556852 | 30° C | 37% | 1014.2 hPa | 0 mm | - | 302 W/m² | - |
| 1788556551 | 29.44° C | 36% | 1014.4 hPa | 0 mm | - | 402 W/m² | - |
| 1788556247 | 28.89° C | 34% | 1014.4 hPa | 0 mm | - | 510 W/m² | - |
| 1788555946 | 28.89° C | 34% | 1014.5 hPa | 0 mm | - | 615 W/m² | - |
| 1788555643 | 28.89° C | 33% | 1014.4 hPa | 0 mm | - | 558 W/m² | - |
| 1788555342 | 29.44° C | 35% | 1014.2 hPa | 0 mm | - | 398 W/m² | - |
| 1788555039 | 28.89° C | 35% | 1014.4 hPa | 0 mm | - | 419 W/m² | - |
| 1788554735 | 29.44° C | 35% | 1014.7 hPa | 0 mm | - | 612 W/m² | - |
| 1788554431 | 29.44° C | 36% | 1014.4 hPa | 0 mm | - | 624 W/m² | - |
| 1788554127 | 29.44° C | 36% | 1014.7 hPa | 0 mm | - | 636 W/m² | - |
| 1788553823 | 28.89° C | 38% | 1014.6 hPa | 0 mm | - | 678 W/m² | - |
| 1788553519 | 29.44° C | 39% | 1014.5 hPa | 0 mm | - | 664 W/m² | - |
| 1788553215 | 29.44° C | 38% | 1014.7 hPa | 0 mm | - | 660 W/m² | - |
| 1788552909 | 29.44° C | 39% | 1014.8 hPa | 0 mm | - | 667 W/m² | - |
| 1788552605 | 28.89° C | 39% | 1014.8 hPa | 0 mm | - | 661 W/m² | - |
| 1788552303 | 28.33° C | 40% | 1015.2 hPa | 0 mm | - | 650 W/m² | - |
| 1788551998 | 27.78° C | 41% | 1015.2 hPa | 0 mm | - | 611 W/m² | - |
| 1788551696 | 27.22° C | 43% | 1015.1 hPa | 0 mm | - | 601 W/m² | - |
| 1788551395 | 27.78° C | 43% | 1015.3 hPa | 0 mm | - | 632 W/m² | - |
| 1788551091 | 28.33° C | 42% | 1015.3 hPa | 0 mm | - | 647 W/m² | - |
| 1788550786 | 27.78° C | 41% | 1015.5 hPa | 0 mm | - | 669 W/m² | - |
| 1788550481 | 27.78° C | 42% | 1015.5 hPa | 0 mm | - | 656 W/m² | - |
| 1788550177 | 27.78° C | 44% | 1015.3 hPa | 0 mm | - | 661 W/m² | - |
| 1788549871 | 27.78° C | 43% | 1015.4 hPa | 0 mm | - | 676 W/m² | - |
| 1788549568 | 27.22° C | 43% | 1015.6 hPa | 0 mm | - | 706 W/m² | - |
* Rain latest hour (hover to see other rain measurements)
** Current wind speed in m/s (hover to see current wind gust speed)